[TLELIST]

  • This mailing list is a public mailing list - anyone may join or leave, at any time.
  • This mailing list is announce-only.

International Space Station (ISS) / Hubble Space Telescope (HST) / Chandra X-Ray Observatory Orbital Data via EMAIL

Privacy Policy:

Private list

Archived Messages

 

[TLELIST] Current TLEs

July 14th 2026 PDT

0 HST 1 20580U 90037B 26194.47969025 .00003768 00000-0 11460-3 0 9997 2 20580 28.4725 260.8360 0002200 88.2424 271.8424 15.31050307792609 0 ISS (ZARYA) 1 25544U 98067A 26195.15353936 .00004039 00000-0 81426-4 0 9999 2 25544 51.6308 166.6375 0006704 293.6864 66.3421 15.49005057575931 0 CXO 1 25867U 99040B 26198.46860485 .00000598 00000-0 00000+0 0 9998 2 25867 56.6226 115.7943 7787013 310.0505 0.4979 0.37805650 17432 ...Continue Reading

[TLELIST] Current TLEs

July 13th 2026 PDT

0 HST 1 20580U 90037B 26194.28414128 .00003883 00000-0 11832-3 0 9996 2 20580 28.4725 262.1734 0002226 86.2676 273.8175 15.31049183792575 0 ISS (ZARYA) 1 25544U 98067A 26194.12129675 .00004316 00000-0 86456-4 0 9992 2 25544 51.6304 171.7447 0006685 289.3803 70.6462 15.48996109575778 0 CXO 1 25867U 99040B 26195.82327180 .00000664 00000-0 00000-0 0 9990 2 25867 56.5906 115.8556 7794609 310.0752 0.4008 0.37803281 17420 ...Continue Reading

[TLELIST] Current TLEs

July 12th 2026 PDT

0 HST 1 20580U 90037B 26192.65455861 .00004090 00000-0 12505-3 0 9993 2 20580 28.4731 273.3159 0002083 72.1261 287.9563 15.31037779792320 0 ISS (ZARYA) 1 25544U 98067A 26193.15356419 .00004878 00000-0 96681-4 0 9996 2 25544 51.6303 176.5328 0006701 285.7692 74.2557 15.48987212575627 0 CXO 1 25867U 99040B 26195.82327180 .00000664 00000-0 00000-0 0 9990 2 25867 56.5906 115.8556 7794609 310.0752 0.4008 0.37803281 17420 ...Continue Reading

[TLELIST] Current TLEs

July 11th 2026 PDT

0 HST 1 20580U 90037B 26191.48125174 .00004318 00000-0 13247-3 0 9991 2 20580 28.4733 281.3385 0002021 60.2686 299.8111 15.31028314792149 0 ISS (ZARYA) 1 25544U 98067A 26192.18582566 .00005410 00000-0 10636-3 0 9990 2 25544 51.6302 181.3206 0006688 281.9973 78.0266 15.48977198575473 0 CXO 1 25867U 99040B 26193.17780626 .00000693 00000-0 00000-0 0 9996 2 25867 56.5436 115.9395 7801621 310.0685 0.3422 0.37804200 17418 ...Continue Reading

[TLELIST] Current TLEs

July 11th 2026 PDT

0 HST 1 20580U 90037B 26191.48125174 .00004318 00000-0 13247-3 0 9991 2 20580 28.4733 281.3385 0002021 60.2686 299.8111 15.31028314792149 0 ISS (ZARYA) 1 25544U 98067A 26192.18582566 .00005410 00000-0 10636-3 0 9990 2 25544 51.6302 181.3206 0006688 281.9973 78.0266 15.48977198575473 0 CXO 1 25867U 99040B 26193.17780626 .00000693 00000-0 00000-0 0 9996 2 25867 56.5436 115.9395 7801621 310.0685 0.3422 0.37804200 17418 ...Continue Reading

[TLELIST] Current TLEs

July 10th 2026 PDT

0 HST 1 20580U 90037B 26190.37312173 .00004895 00000-0 15121-3 0 9998 2 20580 28.4735 288.9155 0002017 48.5299 311.5470 15.31019723791977 0 ISS (ZARYA) 1 25544U 98067A 26191.15356376 .00005628 00000-0 11035-3 0 9999 2 25544 51.6302 186.4276 0006684 277.8890 82.1339 15.48965714575315 0 CXO 1 25867U 99040B 26193.17780626 .00000693 00000-0 00000-0 0 9996 2 25867 56.5436 115.9395 7801621 310.0685 0.3422 0.37804200 17418 ...Continue Reading

[TLELIST] Current TLEs

July 9th 2026 PDT

0 HST 1 20580U 90037B 26189.72127744 .00004866 00000-0 15029-3 0 9998 2 20580 28.4736 293.3726 0001994 41.8079 318.2669 15.31013397791871 0 ISS (ZARYA) 1 25544U 98067A 26189.73419088 .00005258 00000-0 10370-3 0 9990 2 25544 51.6304 193.4497 0006670 272.1743 87.8481 15.48947664575099 0 CXO 1 25867U 99040B 26190.53346781 .00000720 00000-0 00000-0 0 9994 2 25867 56.4882 116.0417 7806470 310.0470 0.4589 0.37804829 17409 ...Continue Reading

[TLELIST] Current TLEs

July 9th 2026 PDT

0 HST 1 20580U 90037B 26189.72127744 .00004866 00000-0 15029-3 0 9998 2 20580 28.4736 293.3726 0001994 41.8079 318.2669 15.31013397791871 0 ISS (ZARYA) 1 25544U 98067A 26189.73419088 .00005258 00000-0 10370-3 0 9990 2 25544 51.6304 193.4497 0006670 272.1743 87.8481 15.48947664575099 0 CXO 1 25867U 99040B 26190.53346781 .00000720 00000-0 00000-0 0 9994 2 25867 56.4882 116.0417 7806470 310.0470 0.4589 0.37804829 17409 ...Continue Reading

[TLELIST] Current TLEs

July 8th 2026 PDT

0 HST 1 20580U 90037B 26188.74350551 .00004421 00000-0 13593-3 0 9994 2 20580 28.4736 300.0580 0001929 32.3294 327.7420 15.31004191791723 0 ISS (ZARYA) 1 25544U 98067A 26189.15353387 .00005161 00000-0 10196-3 0 9994 2 25544 51.6304 196.3226 0006696 270.4034 89.6187 15.48940380575005 0 CXO 1 25867U 99040B 26190.53346781 .00000720 00000-0 00000-0 0 9994 2 25867 56.4882 116.0417 7806470 310.0470 0.4589 0.37804829 17409 ...Continue Reading

[TLELIST] Current TLEs

July 7th 2026 PDT

0 HST 1 20580U 90037B 26187.43980133 .00005846 00000-0 18213-3 0 9990 2 20580 28.4736 308.9719 0001830 18.2005 341.8656 15.30991511791524 0 ISS (ZARYA) 1 25544U 98067A 26188.18576601 .00005994 00000-0 11712-3 0 9991 2 25544 51.6305 201.1096 0006690 265.7165 94.3058 15.48929707574854 0 CXO 1 25867U 99040B 26190.53346780 .00000720 00000-0 00000+0 0 9992 2 25867 56.4882 116.0417 7806470 310.0470 0.4589 0.37804829 17409 ...Continue Reading